Flag for U.S.A. Weather past 2 weeks in Waterbury, Connecticut, U.S.A.

52 °F


Feels Like: 51 °F
Forecast: 47 / 60 °F
Wind: 5 mph from West

Location: Oxford

Current Time: Nov 27, 2015 at 7:26:05 AM

Latest Report: Nov 27, 2015 at 6:52 AM

Visibility: 0 mi

Pressure: 30.54 "Hg

Humidity: 77%

Dew point: 45 °F

Location of WaterburyLocation

Historic Weather in Waterbury — Graph


Waterbury temperature yesterday

Maximum temperature yesterday: 55 °F (at 2:50 PM)
Minimum temperature yesterday: 28 °F (at 4:35 AM)
Average temperature yesterday: 42 °F

Past Weeks' High & Low Weather Summary

High63 °F (Nov 19, 10:55 PM)77% (Nov 12, 11:45 AM)30.82 "Hg (Nov 12, 11:45 AM)
Low19 °F (Nov 24, 4:55 AM)28% (Nov 23, 2:50 PM)29.52 "Hg (Nov 12, 9:55 PM)
Average43 °F56%30.22 "Hg
* Reported Nov 12 5:15 AM — Nov 27 5:52 AM, Waterbury, Weather by CustomWeather, © 2015

Note: Actual official high and low records may vary slightly from our data, if they occured in-between our weather recording intervals... More about our weather records


Waterbury weather history for previous 24 hours

Time TempWeatherWind HumidityBarometerVisibility
5:52 AM
Fri, Nov 27
54 °FFog.3 mph72%30.56 "Hg1 mi
5:35 AM54 °FLow clouds.3 mph72%30.56 "Hg2 mi
4:55 AM54 °FLow clouds.3 mph72%30.56 "Hg2 mi
4:35 AM52 °FLow clouds.3 mph77%30.57 "Hg1 mi
4:15 AM52 °FLow clouds.5 mph77%30.57 "Hg1 mi
3:55 AM52 °FLow clouds.3 mph77%30.58 "Hg0 mi
3:35 AM52 °FLow clouds.3 mph77%30.59 "Hg1 mi
3:15 AM52 °FLow clouds.3 mph77%30.60 "Hg1 mi
2:55 AM52 °FLow clouds.5 mph77%30.60 "Hg1 mi
1:35 AM54 °FLow clouds.7 mph72%30.64 "Hg1 mi
1:15 AM54 °FLow clouds.5 mph72%30.63 "Hg0 mi
12:55 AM54 °FLow clouds.6 mph72%30.63 "Hg0 mi
12:35 AM54 °FLow clouds.5 mph72%30.63 "Hg0 mi
11:55 PM
Thu, Nov 26
54 °FLow clouds.5 mph72%30.66 "Hg0 mi
10:55 PM54 °FLow clouds.6 mph72%30.65 "Hg1 mi
10:35 PM54 °FLow clouds.7 mph72%30.65 "Hg3 mi
10:15 PM54 °FLow clouds.7 mph67%30.66 "Hg7 mi
9:55 PM52 °FPassing clouds.8 mph72%30.65 "Hg9 mi
9:35 PM52 °FClear.6 mph72%30.67 "Hg10 mi
9:15 PM52 °FPassing clouds.5 mph72%30.68 "Hg10 mi
8:55 PM52 °FOvercast.5 mph72%30.68 "Hg10 mi
7:50 PM52 °FPassing clouds.6 mph72%30.70 "Hg10 mi
6:50 PM52 °FPassing clouds.6 mph67%30.70 "Hg10 mi
5:50 PM48 °FPassing clouds.6 mph71%30.71 "Hg10 mi
3:56 PM54 °FScattered clouds.8 mph67%30.71 "Hg10 mi
2:50 PM55 °FMostly cloudy.6 mph59%30.73 "Hg10 mi
1:50 PM54 °FMostly cloudy.7 mph58%30.73 "Hg10 mi
12:50 PM54 °FPassing clouds.7 mph58%30.77 "Hg10 mi
11:50 AM54 °FPartly sunny.5 mph54%30.79 "Hg10 mi
10:50 AM52 °FPartly sunny.8 mph54%30.82 "Hg10 mi
9:50 AM48 °FPartly sunny.8 mph58%30.82 "Hg10 mi
8:50 AM45 °FPartly sunny.No wind66%30.82 "Hg10 mi
7:50 AM34 °FPartly sunny.No wind65%30.82 "Hg10 mi
Weather by CustomWeather, © 2015

See weather overviewHow to use our weather pages